CAPE
0 0 0 0 0 0 0 0 0 0 0 188 331 172 164 202 308 318 337 219 172 633 1296 1302 1644 1037 708 850 1190 1763 1733 1594 1385 1690 1771 1992 2044 2575 2458 2262 2409 2027 2040 2862
0 0 0 0 0 0 0 0 0 0 0 0 265 0 0 2 335 341 464 448 284 492 639 1062 1246 1940 1649 891 890 836 1593 1436 1317 1256 1545 1736 1966 2066 2466 2256 2593 2412 2146 2242
0 0 0 0 0 0 0 0 0 0 0 56 5 0 0 0 294 481 475 417 315 391 629 636 1559 1917 2354 2697 1444 1323 1315 1443 1345 1281 1018 1553 1681 1997 2171 2354 2585 2838 2595 2356
0 0 0 0 0 0 0 0 0 0 0 0 23 0 0 0 0 599 531 397 254 306 325 381 992 1722 2144 2038 2400 3505 3584 3671 3906 1755 1499 1369 1585 1711 1674 2256 2428 2796 3004 2825
0 0 0 0 0 0 0 0 0 0 0 71 73 22 406 276 574 603 362 203 158 99 138 148 508 567 1534 2146 2464 2370 2282 3451 3676 4176 4238 2777 2355 2596 2024 1866 3045 2731 2998 3175
0 0 0 1 0 0 0 0 0 0 0 63 123 10 571 552 671 616 327 106 51 49 30 216 273 742 913 1259 2084 2323 2899 3097 3189 3707 4082 4268 4091 3449 3663 2498 2461 3369 3314 3508
0 0 1 3 0 0 0 0 0 0 0 0 358 367 473 450 403 323 232 104 42 97 117 769 696 614 1024 2876 3234 3650 3663 3605 3423 3228 3774 3941 4427 4326 4544 3868 3150 3170 3922 4098
0 0 0 0 0 0 0 0 0 0 0 62 280 344 409 364 333 266 216 104 99 68 729 1026 1024 755 1124 2350 2854 2471 2582 2535 3431 2817 3809 4108 4161 4510 4493 4500 3962 3813 3808 3881
0 0 0 0 0 0 0 0 0 0 6 96 125 187 237 216 250 105 96 37 375 392 481 702 1053 1220 949 929 1831 2125 2228 2046 3278 3076 4340 4421 4360 4641 4568 4615 4342 3917 3651 3257
0 0 0 0 0 0 0 0 0 0 0 51 74 74 45 50 91 46 19 269 465 598 866 866 866 1050 1384 1352 2064 2163 1992 2034 2896 3758 2987 4147 4252 4326 4488 4533 4381 3775 3792 3699
0 0 0 0 0 0 0 0 0 0 0 3 60 89 43 8 2 49 182 515 1020 1064 950 774 531 495 720 1247 1401 1501 1644 2017 2575 3051 2812 2826 3646 3892 3924 4276 4262 4035 3762 3305
0 0 0 0 0 0 0 2 0 0 0 0 73 59 60 7 0 88 842 1172 737 457 161 109 117 236 333 424 739 1350 1580 2144 2124 2235 2681 2880 3132 3058 3458 3567 3514 3809 3130 2433
0 2 0 0 0 0 0 2 7 0 0 0 0 11 72 53 29 962 695 419 259 128 53 133 285 505 745 1235 1500 1800 1778 2408 1908 2412 2371 1890 2531 2606 2280 2869 2589 2215 2486 2183
13 0 0 34 17 0 0 3 23 39 0 4 12 0 6 9 576 260 165 292 211 91 182 228 399 674 904 1105 1568 1808 2189 2140 2227 2166 1996 2046 1902 2321 2033 2244 1869 1616 1229 1233
26 43 52 8 0 12 15 14 35 19 1 25 40 19 0 380 237 208 225 178 173 141 245 324 401 812 1208 1344 1320 1651 1654 1516 1934 1905 1659 1595 1572 1576 1391 1512 1299 1225 1110 679
85 92 40 0 0 1 4 7 7 0 66 90 70 119 278 243 281 238 334 347 348 393 493 770 954 1025 1008 1161 1365 1363 1177 1359 1277 1350 1172 1217 1004 868 1180 944 808 777 699 343
76 50 49 31 16 0 0 1 1 49 112 219 321 249 306 274 201 201 317 415 497 515 597 497 914 917 640 1004 758 682 920 669 767 896 733 765 921 724 730 704 307 372 0 0
97 126 92 58 81 47 40 53 86 270 360 352 304 229 258 280 308 379 398 439 459 555 461 464 408 286 328 381 378 579 596 626 634 510 248 378 187 0 0 0 0 0 0 0
183 127 113 160 74 28 38 313 460 362 204 152 160 149 240 238 270 394 272 234 130 111 315 2 2 0 2 0 3 1 0 0 5 0 0 0 0 0 0 0 0 0 0 0
200 152 150 147 474 407 283 111 40 70 52 48 83 100 29 51 12 15 10 2 1 0 0 0 0 0 0 0 0 0 0 0 0 0 0 0 2 0 0 0 0 0 0 0
127 215 201 70 26 11 58 13 20 110 41 54 11 34 3 0 0 0 0 0 2 0 0 0 0 0 0 0 0 0 0 0 0 0 0 0 0 0 0 0 0 0 0 0
52 67 31 46 33 4 47 26 25 6 10 1 0 0 0 0 0 0 0 0 0 0 0 0 0 0 0 0 0 0 0 0 0 0 0 0 0 0 0 0 0 0 0 0
35 23 26 23 14 36 54 2 1 2 5 0 0 5 2 0 0 0 0 0 0 0 0 0 0 0 0 0 0 0 0 0 0 0 0 0 0 0 0 0 0 0 0 0
35 1 35 18 9 19 0 0 0 5 3 5 0 0 0 0 0 0 0 0 0 0 0 0 0 0 0 0 0 0 0 0 0 0 0 0 0 0 1 2 6 8 13 12
0 1 0 2 5 0 24 87 2 6 9 2 0 0 0 0 0 0 0 0 0 0 0 0 0 0 0 0 0 0 0 0 3 15 17 16 7 9 10 15 7 7 10 7
40 13 16 17 29 72 77 44 5 15 14 1 0 0 0 0 0 0 0 0 0 0 0 0 0 0 0 1 5 0 0 0 0 0 0 0 0 0 0 3 2 0 0 0
56 49 30 33 34 35 19 20 32 23 8 10 3 0 0 0 0 0 0 0 0 0 0 3 4 7 23 18 4 0 0 0 0 0 0 0 0 0 0 0 0 0 0 0
CIN
-0 -0 -0 -0 -0 -0 -0 -0 -0 -0 -0 -61 -19 -19 -32 -23 -98 -165 -172 -210 -237 -129 -192 -293 -264 -408 -298 -237 -208 -224 -250 -226 -240 -212 -227 -196 -172 -156 -146 -172 -153 -140 -193 -144
-0 -0 -0 -0 -0 -0 -0 -0 -0 -0 -0 -0 -0 -0 -0 -5 -58 -107 -165 -216 -224 -246 -115 -94 -117 -235 -307 -239 -200 -176 -198 -197 -181 -222 -191 -204 -194 -177 -172 -184 -175 -183 -197 -196
-0 -0 -0 -0 -0 -0 -0 -0 -0 -0 -0 -22 -83 -0 -0 -0 -51 -87 -156 -145 -171 -169 -335 -155 -72 -93 -98 -150 -271 -257 -292 -233 -188 -176 -193 -187 -177 -167 -261 -172 -216 -212 -204 -189
-0 -0 -0 -0 -0 -0 -0 -0 -0 -0 -0 -3 -55 -83 -0 -0 -0 -107 -171 -199 -149 -231 -182 -166 -89 -56 -76 -70 -89 -102 -100 -124 -143 -318 -297 -62 -329 -290 -257 -261 -257 -236 -221 -210
-0 -0 -0 -0 -0 -0 -0 -0 -0 -0 -0 -50 -173 -295 -165 -93 -165 -134 -94 -125 -170 -183 -210 -224 -307 -238 -46 -171 -136 -160 -160 -135 -127 -127 -134 -227 -287 -244 -269 -243 -220 -238 -238 -238
-0 -0 -0 -0 -0 -0 -0 -0 -0 -0 -0 -148 -97 -5 -97 -83 -36 -44 -63 -71 -164 -251 -281 -393 -402 -378 -371 -320 -193 -168 -127 -167 -181 -128 -103 -117 -85 -175 -177 -217 -212 -173 -194 -184
-0 -0 -12 -37 -0 -0 -0 -0 -0 -0 -0 -0 -49 -51 -52 -62 -57 -58 -84 -64 -228 -402 -484 -347 -424 -505 -407 -166 -131 -114 -120 -120 -101 -196 -125 -108 -94 -74 -80 -100 -161 -153 -96 -87
-0 -0 -0 -0 -0 -0 -0 -0 -0 -0 -0 -59 -23 -27 -24 -35 -49 -74 -72 -248 -322 -346 -284 -310 -350 -434 -361 -192 -146 -175 -222 -257 -135 -250 -154 -117 -95 -45 -50 -34 -38 -73 -49 -43
-0 -0 -0 -0 -0 -0 -0 -0 -0 -0 -37 -58 -44 -13 -17 -25 -21 -54 -42 -41 -232 -293 -338 -335 -283 -263 -330 -387 -239 -209 -237 -322 -171 -179 -71 -53 -63 -35 -36 -19 -18 -11 -20 -42
-0 -0 -0 -0 -0 -0 -0 -0 -0 -0 -0 -18 -36 -43 -64 -40 -43 -42 -91 -173 -195 -230 -247 -276 -273 -225 -167 -168 -69 -103 -194 -258 -149 -78 -182 -58 -38 -34 -28 -28 -3 -3 -16 -3
-0 -0 -0 -0 -0 -0 -0 -0 -0 -0 -0 -1 -70 -10 -34 -71 -64 -85 -106 -103 -73 -116 -151 -275 -364 -356 -280 -150 -137 -159 -172 -152 -110 -83 -119 -145 -65 -37 -14 -2 -0 -0 -1 -0
-0 -0 -0 -0 -0 -0 -0 -0 -0 -0 -0 -0 -74 -3 -8 -16 -0 -126 -28 -57 -95 -136 -271 -453 -478 -390 -392 -392 -302 -139 -126 -49 -75 -102 -58 -53 -38 -47 -9 -2 -7 -0 -0 -0
-0 -0 -0 -0 -0 -0 -0 -21 -2 -0 -0 -0 -2 -22 -0 -20 -106 -93 -56 -99 -156 -243 -325 -294 -274 -210 -137 -102 -53 -37 -60 -8 -57 -14 -23 -90 -13 -16 -32 -0 -0 -6 -0 -0
-0 -0 -0 -7 -0 -0 -0 -15 -0 -2 -0 -0 -33 -0 -10 -5 -141 -146 -161 -136 -179 -269 -199 -170 -148 -114 -100 -101 -43 -14 -2 -1 -0 -0 -3 -0 -6 -0 -0 -0 -0 -0 -4 -2
-0 -27 -7 -2 -0 -4 -1 -6 -24 -41 -0 -32 -30 -44 -0 -76 -164 -265 -108 -141 -138 -145 -117 -104 -113 -40 -17 -9 -7 -4 -0 -0 -0 -0 -0 -0 -0 -5 -1 -0 -0 -0 -0 -14
-15 -34 -7 -0 -0 -7 -0 -0 -1 -0 -22 -41 -34 -41 -37 -58 -92 -95 -78 -79 -66 -59 -23 -14 -0 -1 -18 -5 -0 -0 -2 -0 -0 -0 -0 -0 -0 -0 -0 -0 -0 -0 -0 -22
-20 -17 -19 -20 -14 -0 -0 -1 -1 -56 -24 -16 -116 -82 -80 -90 -63 -67 -64 -14 -4 -17 -6 -7 -0 -0 -27 -1 -4 -15 -0 -25 -3 -0 -5 -0 -0 -1 -0 -1 -10 -1 -0 -0
-24 -25 -32 -55 -18 -24 -56 -71 -59 -18 -49 -94 -85 -99 -86 -56 -28 -22 -0 -0 -0 -0 -1 -3 -6 -29 -33 -29 -17 -0 -0 -0 -0 -0 -12 -0 -10 -0 -0 -0 -0 -0 -0 -0
-18 -19 -17 -38 -41 -36 -22 -34 -53 -68 -63 -97 -93 -69 -36 -11 -1 -0 -0 -1 -14 -14 -1 -0 -0 -0 -8 -13 -12 -22 -0 -0 -24 -0 -0 -0 -0 -0 -0 -0 -0 -0 -0 -0
-25 -32 -24 -44 -31 -39 -31 -56 -74 -70 -40 -34 -40 -8 -34 -16 -3 -2 -22 -12 -12 -0 -0 -0 -0 -0 -0 -0 -0 -0 -0 -0 -0 -0 -0 -0 -4 -0 -0 -0 -0 -0 -0 -0
-0 -12 -14 -50 -102 -57 -25 -28 -58 -1 -17 -6 -39 -19 -0 -0 -0 -0 -0 -0 -0 -0 -0 -0 -0 -0 -0 -0 -0 -0 -0 -0 -0 -0 -0 -0 -0 -0 -1 -0 -0 -0 -0 -0
-0 -1 -8 -8 -61 -9 -0 -2 -2 -11 -0 -21 -0 -16 -0 -0 -0 -0 -0 -0 -0 -0 -0 -0 -0 -0 -0 -0 -0 -0 -0 -0 -0 -0 -0 -0 -0 -0 -0 -0 -0 -0 -0 -0
-4 -0 -0 -8 -2 -1 -0 -0 -0 -0 -1 -0 -0 -3 -3 -0 -0 -0 -0 -0 -0 -0 -0 -0 -0 -0 -0 -0 -0 -0 -0 -0 -0 -0 -0 -0 -0 -0 -0 -0 -0 -0 -0 -0
-0 -0 -0 -0 -0 -1 -0 -0 -0 -7 -2 -1 -0 -0 -0 -0 -0 -0 -0 -0 -0 -0 -0 -0 -0 -0 -0 -0 -0 -0 -0 -0 -0 -0 -0 -0 -0 -0 -4 -5 -31 -10 -7 -7
-0 -0 -0 -1 -2 -1 -10 -15 -3 -8 -3 -0 -0 -0 -0 -0 -0 -0 -0 -0 -0 -0 -0 -0 -0 -0 -0 -0 -0 -0 -0 -0 -8 -34 -20 -25 -18 -12 -34 -21 -18 -27 -34 -13
-5 -12 -34 -31 -16 -15 -23 -45 -2 -0 -1 -3 -0 -0 -0 -0 -0 -0 -0 -0 -0 -0 -0 -0 -0 -0 -1 -2 -58 -5 -0 -0 -0 -0 -0 -0 -0 -0 -0 -23 -23 -0 -0 -0
-1 -7 -6 -18 -4 -42 -10 -0 -0 -0 -9 -7 -15 -0 -0 -0 -0 -0 -0 -0 -0 -0 -0 -30 -18 -13 -29 -38 -36 -0 -0 -0 -0 -0 -0 -0 -0 -0 -0 -0 -0 -0 -0 -0
Wind_Speed
nan nan nan nan nan nan nan nan nan nan nan 28 19 27 30 36 37 40 41 34 24 27 31 28 26 18 12 13 14 14 15 14 11 13 13 13 11 11 10 6 6 11 9 10
nan nan nan nan nan nan nan nan nan nan nan nan 20 nan nan nan 26 27 32 39 39 38 42 38 33 25 22 18 14 14 14 20 16 13 14 16 15 13 12 8 6 10 11 15
nan nan nan nan nan nan nan nan nan nan nan nan nan nan nan nan 16 26 38 38 43 42 37 41 40 37 37 28 22 17 16 11 20 19 14 17 17 18 14 10 11 14 13 15
nan nan nan nan nan nan nan nan nan nan nan nan nan nan nan nan nan 35 38 34 42 51 45 42 42 43 41 39 34 29 24 23 17 14 12 13 15 14 12 12 14 18 22 25
nan nan nan nan nan nan nan nan nan nan nan nan nan nan 67 56 53 55 54 44 38 nan 52 51 47 47 49 46 40 34 29 26 22 21 18 16 11 12 15 19 21 19 22 27
nan nan nan nan nan nan nan nan nan nan nan nan 56 nan 74 84 81 73 69 67 nan nan nan 62 58 53 53 52 46 44 39 33 28 24 24 22 19 17 21 23 22 25 27 31
nan nan nan nan nan nan nan nan nan nan nan nan 57 56 55 63 78 79 79 81 nan nan 58 53 53 54 47 53 55 49 46 40 34 31 26 26 30 31 31 28 32 33 41 41
nan nan nan nan nan nan nan nan nan nan nan nan 48 58 56 67 65 71 72 77 nan nan 71 68 62 61 57 53 52 54 51 45 37 36 35 34 36 38 38 39 41 46 52 54
nan nan nan nan nan nan nan nan nan nan nan nan 51 51 56 58 66 70 nan nan 64 66 61 56 56 62 62 51 51 51 52 50 45 43 43 45 44 47 50 47 51 55 55 59
nan nan nan nan nan nan nan nan nan nan nan nan nan nan nan nan nan nan nan 67 59 58 54 51 53 55 57 54 49 51 52 47 53 56 57 58 55 55 52 44 49 55 54 56
nan nan nan nan nan nan nan nan nan nan nan nan nan nan nan nan nan nan 65 66 59 57 54 56 52 49 48 51 51 48 48 54 56 57 58 58 60 57 54 47 49 57 58 62
nan nan nan nan nan nan nan nan nan nan nan nan nan nan nan nan nan nan 70 63 62 58 53 52 51 45 42 40 43 46 51 53 56 62 59 60 60 64 78 69 74 70 69 62
nan nan nan nan nan nan nan nan nan nan nan nan nan nan nan nan nan 65 66 70 59 54 nan 51 49 45 42 40 43 49 52 55 59 63 63 65 69 68 69 73 89 78 72 74
nan nan nan nan nan nan nan nan nan nan nan nan nan nan nan nan 42 32 48 52 49 nan 49 44 45 46 45 46 52 54 55 56 54 57 59 63 67 69 75 79 76 74 76 76
nan nan nan nan nan nan nan nan nan nan nan nan nan nan nan 47 30 30 44 46 47 50 47 44 42 42 40 45 49 51 50 49 51 52 54 57 60 61 66 68 72 73 72 70
nan nan nan nan nan nan nan nan nan nan nan nan nan 35 49 25 29 40 35 40 43 45 46 44 41 38 39 44 47 48 48 55 48 45 49 50 54 55 54 59 62 60 59 61
nan nan nan nan nan nan nan nan nan nan 19 14 26 20 39 36 29 24 36 36 41 43 39 39 36 39 39 34 35 38 37 38 42 39 39 38 39 42 43 45 46 53 nan nan
nan 21 nan nan nan nan nan nan nan 13 9 13 19 23 22 20 25 29 26 29 32 39 40 33 31 30 30 31 33 34 35 37 39 40 39 41 43 nan nan nan nan nan nan nan
17 21 21 25 nan nan nan 9 8 10 12 16 17 17 16 16 15 18 21 22 25 26 23 nan nan nan nan nan nan nan nan nan nan nan nan nan nan nan nan nan nan nan nan nan
14 13 13 7 6 10 12 11 nan nan nan nan nan 16 nan nan nan nan nan nan nan nan nan nan nan nan nan nan nan nan nan nan nan nan nan nan nan nan nan nan nan nan nan nan
12 7 6 nan nan nan nan nan nan 8 nan nan nan nan nan nan nan nan nan nan nan nan nan nan nan nan nan nan nan nan nan nan nan nan nan nan nan nan nan nan nan nan nan nan
nan nan nan nan nan nan nan nan nan nan nan nan nan nan nan nan nan nan nan nan nan nan nan nan nan nan nan nan nan nan nan nan nan nan nan nan nan nan nan nan nan nan nan nan
nan nan nan nan nan nan nan nan nan nan nan nan nan nan nan nan nan nan nan nan nan nan nan nan nan nan nan nan nan nan nan nan nan nan nan nan nan nan nan nan nan nan nan nan
nan nan nan nan nan nan nan nan nan nan nan nan nan nan nan nan nan nan nan nan nan nan nan nan nan nan nan nan nan nan nan nan nan nan nan nan nan nan nan nan nan nan nan nan
nan nan nan nan nan nan nan nan nan nan nan nan nan nan nan nan nan nan nan nan nan nan nan nan nan nan nan nan nan nan nan nan nan nan nan nan nan nan nan nan nan nan nan nan
nan nan nan nan nan nan nan nan nan nan nan nan nan nan nan nan nan nan nan nan nan nan nan nan nan nan nan nan nan nan nan nan nan nan nan nan nan nan nan nan nan nan nan nan
nan nan nan nan nan nan nan nan nan nan nan nan nan nan nan nan nan nan nan nan nan nan nan nan nan nan nan nan nan nan nan nan nan nan nan nan nan nan nan nan nan nan nan nan
Wind_Direction
nan nan nan nan nan nan nan nan nan nan nan 222 271 257 263 264 263 236 217 224 223 225 243 247 252 260 282 313 320 334 337 336 327 319 317 322 322 317 324 330 16 13 359 338
nan nan nan nan nan nan nan nan nan nan nan nan 240 nan nan nan 246 226 233 223 217 212 235 237 236 252 256 280 291 286 346 343 325 289 312 319 314 296 312 301 328 349 355 338
nan nan nan nan nan nan nan nan nan nan nan nan nan nan nan nan 246 249 229 226 228 222 226 234 238 238 245 247 259 269 290 302 315 300 305 307 301 300 300 304 300 336 336 323
nan nan nan nan nan nan nan nan nan nan nan nan nan nan nan nan nan 262 253 221 225 223 226 226 232 232 237 245 247 253 257 267 270 272 298 296 285 294 295 287 303 308 318 323
nan nan nan nan nan nan nan nan nan nan nan nan nan nan 219 227 240 250 256 238 222 nan 220 220 227 232 237 237 242 240 249 251 250 251 250 268 291 285 276 287 290 307 308 313
nan nan nan nan nan nan nan nan nan nan nan nan 230 nan 234 233 239 242 245 248 nan nan nan 223 224 235 239 236 239 243 236 238 245 253 260 264 266 271 273 282 294 289 299 300
nan nan nan nan nan nan nan nan nan nan nan nan 232 232 225 232 237 240 243 246 nan nan 238 236 237 242 246 240 238 236 238 234 237 249 255 259 260 259 262 273 278 285 278 279
nan nan nan nan nan nan nan nan nan nan nan nan 222 242 227 224 226 237 239 237 nan nan 247 247 244 247 246 242 235 234 233 230 235 242 252 257 261 265 271 277 277 279 279 276
nan nan nan nan nan nan nan nan nan nan nan nan 230 233 240 230 227 232 nan nan 241 245 246 241 241 239 237 235 233 230 233 233 234 239 244 250 257 255 258 263 268 269 274 277
nan nan nan nan nan nan nan nan nan nan nan nan nan nan nan nan nan nan nan 238 240 240 242 238 229 230 231 233 234 234 232 229 230 238 243 246 251 250 256 278 263 273 279 278
nan nan nan nan nan nan nan nan nan nan nan nan nan nan nan nan nan nan 235 237 241 237 241 237 231 232 233 233 234 237 236 241 244 246 249 250 249 252 259 261 268 273 275 278
nan nan nan nan nan nan nan nan nan nan nan nan nan nan nan nan nan nan 239 236 231 234 236 234 228 225 229 231 234 238 246 246 247 248 252 255 258 259 251 252 257 264 268 273
nan nan nan nan nan nan nan nan nan nan nan nan nan nan nan nan nan 256 238 231 233 230 nan 227 224 224 228 234 241 249 252 251 251 252 251 253 251 256 259 253 253 253 259 268
nan nan nan nan nan nan nan nan nan nan nan nan nan nan nan nan 239 243 237 235 230 nan 225 222 224 225 228 239 247 251 252 252 255 254 255 254 255 254 256 258 261 262 258 269
nan nan nan nan nan nan nan nan nan nan nan nan nan nan nan 238 236 255 235 229 229 228 225 221 227 229 234 243 249 252 254 256 257 256 257 257 256 258 260 261 262 264 266 268
nan nan nan nan nan nan nan nan nan nan nan nan nan 216 230 242 234 232 224 225 233 231 224 224 227 229 243 251 257 257 259 261 260 263 262 261 262 263 259 260 262 264 267 269
nan nan nan nan nan nan nan nan nan nan 112 182 222 244 237 235 239 237 229 227 231 225 223 226 228 240 244 243 251 257 261 260 268 267 265 267 268 269 271 270 269 268 nan nan
nan 54 nan nan nan nan nan nan nan 121 174 198 212 217 229 240 230 227 223 221 221 221 222 224 232 238 246 253 255 258 257 260 260 260 262 264 267 nan nan nan nan nan nan nan
75 75 62 66 nan nan nan 96 136 149 173 184 190 193 198 202 203 209 210 214 220 221 216 nan nan nan nan nan nan nan nan nan nan nan nan nan nan nan nan nan nan nan nan nan
115 107 89 74 86 64 76 80 nan nan nan nan nan 173 nan nan nan nan nan nan nan nan nan nan nan nan nan nan nan nan nan nan nan nan nan nan nan nan nan nan nan nan nan nan
139 161 217 nan nan nan nan nan nan 147 nan nan nan nan nan nan nan nan nan nan nan nan nan nan nan nan nan nan nan nan nan nan nan nan nan nan nan nan nan nan nan nan nan nan
nan nan nan nan nan nan nan nan nan nan nan nan nan nan nan nan nan nan nan nan nan nan nan nan nan nan nan nan nan nan nan nan nan nan nan nan nan nan nan nan nan nan nan nan
nan nan nan nan nan nan nan nan nan nan nan nan nan nan nan nan nan nan nan nan nan nan nan nan nan nan nan nan nan nan nan nan nan nan nan nan nan nan nan nan nan nan nan nan
nan nan nan nan nan nan nan nan nan nan nan nan nan nan nan nan nan nan nan nan nan nan nan nan nan nan nan nan nan nan nan nan nan nan nan nan nan nan nan nan nan nan nan nan
nan nan nan nan nan nan nan nan nan nan nan nan nan nan nan nan nan nan nan nan nan nan nan nan nan nan nan nan nan nan nan nan nan nan nan nan nan nan nan nan nan nan nan nan
nan nan nan nan nan nan nan nan nan nan nan nan nan nan nan nan nan nan nan nan nan nan nan nan nan nan nan nan nan nan nan nan nan nan nan nan nan nan nan nan nan nan nan nan
nan nan nan nan nan nan nan nan nan nan nan nan nan nan nan nan nan nan nan nan nan nan nan nan nan nan nan nan nan nan nan nan nan nan nan nan nan nan nan nan nan nan nan nan